Location: Kawakawa
(35.3830°S, 174.0670°E)
Time: 18:43:58
(UTC+13:00)

A-11 Canister half - Pass Details

Date: 07 December 2019
Orbit: 1525 x 1684 km, 47.3° (Epoch: 19 January)

Event Time Altitude Azimuth Distance (km) Brightness Sun altitude
Rises 22:08:31 0° 268° (W) 4,685 12.3 -17.1°
Reaches altitude 10° 22:11:48 10° 261° (W) 3,704 11.8 -17.6°
Maximum altitude 22:20:34 43° 191° (S) 2,058 10.1 -18.8°
Drops below altitude 10° 22:29:31 10° 121° (ESE) 3,766 10.9 -20.0°
Sets 22:32:53 0° 114° (ESE) 4,770 11.4 -20.5°
